Time,TemperatureF,DewpointF,PressureIn,WindDirection,WindDirectionDegrees,WindSpeedMPH,WindSpeedGustMPH,Humidity,HourlyPrecipIn,Conditions,Clouds,dailyrainin,SoftwareType,DateUTC
2013-03-12 00:52:00,72.0,-99.9,30.00,SE,140,11.0,13.0,-999,-99.99,,,-99.99,,2013-03-12 04:52:00,
2013-03-12 01:52:00,71.0,-99.9,30.00,SSE,150,11.0,14.0,-999,-99.99,,,-99.99,,2013-03-12 05:52:00,
2013-03-12 02:52:00,72.0,-99.9,29.98,SSE,160,13.0,14.0,-999,-99.99,,,-99.99,,2013-03-12 06:52:00,
2013-03-12 03:53:00,72.0,-99.9,29.97,SSE,160,11.0,14.0,-999,-99.99,,,-99.99,,2013-03-12 07:53:00,
2013-03-12 04:52:00,71.0,-99.9,29.96,SSE,160,10.0,11.0,-999,-99.99,,,-99.99,,2013-03-12 08:52:00,
2013-03-12 05:53:00,71.0,-99.9,29.92,SSE,160,13.0,14.0,-999,-99.99,,,-99.99,,2013-03-12 09:53:00,
2013-03-12 06:53:00,72.0,-99.9,29.92,SSE,160,14.0,16.0,-999,-99.99,,,-99.99,,2013-03-12 10:53:00,
2013-03-12 07:52:00,72.0,-99.9,29.96,South,190,9.0,11.0,-999,-99.99,,,-99.99,,2013-03-12 11:52:00,
2013-03-12 08:52:00,71.0,-99.9,29.96,South,180,7.0,7.0,-999,-99.99,,,-99.99,,2013-03-12 12:52:00,
2013-03-12 09:53:00,72.0,-99.9,29.98,South,180,10.0,10.0,-999,-99.99,,,-99.99,,2013-03-12 13:53:00,
2013-03-12 10:53:00,72.0,-99.9,30.01,South,190,9.0,11.0,-999,-99.99,,,-99.99,,2013-03-12 14:53:00,
2013-03-12 10:54:00,72.0,-99.9,30.02,South,180,13.0,14.0,-999,-99.99,,,-99.99,,2013-03-12 14:54:00,
2013-03-12 12:53:00,73.0,-99.9,30.03,South,190,10.0,11.0,-999,-99.99,,,-99.99,,2013-03-12 16:53:00,
2013-03-12 12:54:00,73.0,-99.9,30.02,South,180,9.0,11.0,-999,-99.99,,,-99.99,,2013-03-12 16:54:00,
2013-03-12 13:54:00,73.0,-99.9,30.00,South,180,8.0,10.0,-999,-99.99,,,-99.99,,2013-03-12 17:54:00,
2013-03-12 15:53:00,73.0,-99.9,29.99,SSE,160,2.0,5.0,-999,-99.99,,,-99.99,,2013-03-12 19:53:00,
2013-03-12 16:53:00,72.0,-99.9,29.98,SSE,150,2.0,6.0,-999,-99.99,,,-99.99,,2013-03-12 20:53:00,
2013-03-12 17:53:00,73.0,-99.9,29.96,North,0,0.0,0.0,-999,-99.99,,,-99.99,,2013-03-12 21:53:00,
2013-03-12 17:54:00,72.0,-99.9,29.98,North,0,0.0,0.0,-999,-99.99,,,-99.99,,2013-03-12 21:54:00,
2013-03-12 19:53:00,72.0,-99.9,29.97,North,0,0.0,0.0,-999,-99.99,,,-99.99,,2013-03-12 23:53:00,
2013-03-12 19:54:00,72.0,-99.9,29.97,North,0,0.0,0.0,-999,-99.99,,,-99.99,,2013-03-12 23:54:00,
2013-03-12 21:53:00,72.0,-99.9,30.00,East,100,2.0,3.0,-999,-99.99,,,-99.99,,2013-03-13 01:53:00,
2013-03-12 22:53:00,69.0,-99.9,30.02,North,350,14.0,17.0,-999,-99.99,,,-99.99,,2013-03-13 02:53:00,
2013-03-12 23:53:00,69.0,-99.9,30.03,North,360,15.0,17.0,-999,-99.99,,,-99.99,,2013-03-13 03:53:00,